TimeMST,TemperatureF,Dew PointF,Humidity,Sea Level PressureIn,VisibilityMPH,Wind Direction,Wind SpeedMPH,Gust SpeedMPH,PrecipitationIn,Events,Conditions,WindDirDegrees,DateUTC
12:53 AM,10.0,6.1,84,30.42,10.0,East,6.9,-,N/A,,Clear,90,2013-01-02 07:53:00
1:53 AM,9.0,5.0,84,30.43,10.0,East,8.1,-,N/A,,Clear,100,2013-01-02 08:53:00
2:53 AM,6.1,3.0,87,30.44,10.0,East,5.8,-,N/A,,Clear,80,2013-01-02 09:53:00
3:53 AM,5.0,1.0,84,30.44,10.0,East,5.8,-,N/A,,Clear,80,2013-01-02 10:53:00
4:53 AM,3.9,-0.0,84,30.44,10.0,East,5.8,-,N/A,,Clear,90,2013-01-02 11:53:00
5:53 AM,3.9,1.0,88,30.45,10.0,East,5.8,-,N/A,,Clear,100,2013-01-02 12:53:00
6:53 AM,3.0,-0.0,87,30.47,10.0,East,3.5,-,N/A,,Clear,90,2013-01-02 13:53:00
7:53 AM,3.0,-0.9,84,30.48,10.0,ENE,5.8,-,N/A,,Clear,60,2013-01-02 14:53:00
8:53 AM,9.0,3.0,77,30.47,10.0,East,4.6,-,N/A,,Clear,90,2013-01-02 15:53:00
9:53 AM,10.9,5.0,77,30.48,10.0,ESE,8.1,-,N/A,,Clear,110,2013-01-02 16:53:00
10:53 AM,15.1,8.1,74,30.48,10.0,SE,5.8,-,N/A,,Clear,130,2013-01-02 17:53:00
11:53 AM,19.0,10.0,68,30.44,10.0,SE,3.5,-,N/A,,Clear,130,2013-01-02 18:53:00
12:53 PM,21.9,10.9,63,30.37,10.0,Calm,Calm,-,N/A,,Clear,0,2013-01-02 19:53:00
1:53 PM,25.0,10.9,55,30.34,10.0,Calm,Calm,-,N/A,,Clear,0,2013-01-02 20:53:00
2:53 PM,25.0,12.0,58,30.35,10.0,SSW,3.5,-,N/A,,Clear,200,2013-01-02 21:53:00
3:53 PM,26.1,12.0,55,30.34,10.0,West,3.5,-,N/A,,Clear,280,2013-01-02 22:53:00
4:53 PM,21.9,12.0,66,30.37,10.0,WSW,6.9,-,N/A,,Clear,250,2013-01-02 23:53:00
5:53 PM,19.9,12.0,71,30.38,10.0,Calm,Calm,-,N/A,,Clear,0,2013-01-03 00:53:00
6:53 PM,16.0,10.0,77,30.41,10.0,Calm,Calm,-,N/A,,Clear,0,2013-01-03 01:53:00
7:53 PM,12.0,8.1,84,30.45,10.0,ENE,3.5,-,N/A,,Clear,60,2013-01-03 02:53:00
8:53 PM,10.0,6.1,84,30.43,10.0,Calm,Calm,-,N/A,,Clear,0,2013-01-03 03:53:00
9:53 PM,8.1,3.9,83,30.45,10.0,NE,3.5,-,N/A,,Clear,50,2013-01-03 04:53:00
10:53 PM,7.0,3.9,87,30.47,10.0,NNE,4.6,-,N/A,,Clear,30,2013-01-03 05:53:00
11:53 PM,7.0,3.0,84,30.45,10.0,Calm,Calm,-,N/A,,Clear,0,2013-01-03 06:53:00